Miscellaneous Local Product
Issued by NWS Hastings, NE

Home | Current Version | Previous Version | Graphics & Text | Print | Product List | Glossary On
Versions: 1 2 3 4 5 6 7 8 9 10 11 12 13 14 15 16 17 18 19 20 21 22 23 24 25 26 27 28 29 30 31 32 33 34 35 36 37 38 39 40 41 42 43 44 45 46 47 48 49 50
000
AXUS43 KGID 271102
MISGRI

GID CWA HOURLY WEATHER ROUNDUP
NATIONAL WEATHER SERVICE HASTINGS NE
600 AM CDT WED MAY 27 2015

NOTE: "FAIR" INDICATES FEW OR NO CLOUDS BELOW 12,000 FEET WITH NO
SIGNIFICANT WEATHER AND/OR OBSTRUCTIONS TO VISIBILITY.

...SOUTH CENTRAL NEBRASKA...

CITY           SKY/WX    TMP DP  RH WIND       PRES   REMARKS
GRAND ISLAND   CLEAR     50  46  86 W5        30.05R
HASTINGS       CLEAR     53  46  77 W6        30.05R
KEARNEY        PTCLDY    54  46  76 NW5       30.05S
ORD            CLEAR     46  43  89 CALM      30.03R
YORK           CLEAR     50  48  93 W7        30.04R
AURORA         CLEAR     50  48  93 W6        30.04R
LEXINGTON      CLEAR     47  46  95 NE5       30.06S FOG
HOLDREGE       PTCLDY    47  43  87 CALM      30.05F
HEBRON         CLEAR     48  46  91 CALM      30.04S

...NEBRASKA PANHANDLE...

CITY           SKY/WX    TMP DP  RH WIND       PRES   REMARKS
CHADRON        CLOUDY    57  52  83 S9        30.01S
ALLIANCE       CLOUDY    53  50  89 SE6       30.03F
SCOTTSBLUFF    MOCLDY    54  50  86 CALM      30.03R
SIDNEY         PTCLDY    52  49  89 SE12      30.05S

...WESTERN AND NORTH CENTRAL NEBRASKA...

CITY           SKY/WX    TMP DP  RH WIND       PRES   REMARKS
VALENTINE      PTCLDY    45  43  93 W5        30.03S
AINSWORTH      CLEAR     52  47  82 SW9       30.04R
ONEILL         CLEAR     52  48  87 SW3       30.02R
BROKEN BOW     CLEAR     48  45  89 CALM      30.06R
IMPERIAL       MOCLDY    51  48  89 S3        30.07R
NORTH PLATTE   PTCLDY    47  45  93 E5        30.06R
MCCOOK         CLOUDY    54  49  83 SW8       30.08R

...EASTERN NEBRASKA...

CITY           SKY/WX    TMP DP  RH WIND       PRES   REMARKS
NORFOLK        CLEAR     52  48  86 W3        30.01R
SO SIOUX CITY  CLEAR     52  49  89 NW3       29.99R
TEKAMAH        CLEAR     54  51  90 CALM      29.99R
COLUMBUS         N/A    N/A N/A N/A MISG        N/A
ALBION         CLEAR     49  46  89 CALM      30.03R
OMAHA EPPLEY   PTCLDY    54  52  93 CALM      30.00S
OFFUTT AFB     CLEAR     50  48  95 NW2       30.00R
MILLARD        FOG       52  51  97 CALM      30.01R VSB 1/2
LINCOLN        CLEAR     52  47  83 CALM      30.03R
NEBRASKA CITY  FAIR      56  49  77 W9        30.02R
BEATRICE       CLEAR     50  49  96 CALM      30.03S
FALLS CITY     CLEAR     56  52  86 W7        30.02R

...NORTHERN KANSAS...

CITY           SKY/WX    TMP DP  RH WIND       PRES   REMARKS
GOODLAND       CLOUDY    53  51  93 SE10      30.06S
HILL CITY      CLOUDY    52  50  93 W3        30.07R
NORTON         PTSUNNY   48  45  87 SW3       30.06R
PHILLIPSBURG   CLEAR     52  52 100 NW3       30.06F
SMITH CENTER   CLEAR     46  46 100 SW3       30.07R
HAYS           MOCLDY    54  45  71 CALM      30.07R
RUSSELL        PTCLDY    53  52  96 S6        30.05R
CONCORDIA      PTCLDY    53  50  89 SW7       30.05R
SALINA         CLEAR     57  54  89 SW5       30.06R
TOPEKA         CLEAR     57  56  96 CALM      30.04R



USA.gov is the U.S. government's official web portal to all federal, state and local government web resources and services.